Regional Weather Roundup
Issued by NWS Grand Forks, ND

Home | Current Version | Previous Version | Graphics & Text | Print | Product List | Glossary On
Versions: 1 2 3 4 5 6 7 8 9 10 11 12 13 14 15 16 17 18 19 20 21 22 23 24 25 26 27 28 29 30 31 32 33 34 35 36 37 38 39 40 41 42 43 44 45 46 47 48 49 50
000
ASUS43 KFGF 311131
RWRFGF
PRAIRIE TO PINES  WEATHER ROUNDUP
NATIONAL WEATHER SERVICE EASTERN NORTH DAKOTA/GRAND FORKS ND
500 AM CST SAT JAN 31 2015

 **SATELLITE DATA USED TO AUGMENT SKY COVER AT AUTOMATED STATIONS**
 *****  WEATHER ACROSS EASTERN NORTH DAKOTA  *****

CITY           SKY/WX    TMP DP  RH WIND       PRES   REMARKS
GRAND FORKS    PTCLDY     9  -1  64 N23       30.34R WCI -11
GRAND FRKS AFB CLOUDY     7   0  72 NE18G24   30.35R WCI -12
GRAND FRKS NWS   N/A      7 N/A N/A N13         N/A  WCI  -9
DEVILS LAKE    CLOUDY     7   1  78 NE15      30.30R WCI -11
FARGO          CLOUDY    17  11  77 N23       30.29R WCI  -1
WAHPETON ARPT  CLOUDY    19  14  79 N17       30.26R WCI   4
$$

 ***** WEATHER ACROSS CENTRAL AND WESTERN NORTH DAKOTA  *****

CITY           SKY/WX    TMP DP  RH WIND       PRES   REMARKS
BISMARCK       CLOUDY    24  22  91 NE10      30.22F WCI  14
MINOT          CLOUDY    13   8  81 NE16      30.28R WCI  -3
JAMESTOWN      CLOUDY    19  13  77 N13       30.25R WCI   6
MINOT AFB      CLOUDY    12  10  92 NE18      30.29R WCI  -5
GARRISON         N/A     19  16  88 NE7       30.22F WCI  10
WILLISTON      CLOUDY    23  20  88 E16       30.19F WCI  10
DICKINSON      FOG       22  19  89 E15       30.10F VSB 3/4 WCI   9
HETTINGER      FOG       24  22  91 E14       30.09F VSB 1/4 WCI  12
$$

 *****  OTHER AIRPORT OBSERVATIONS IN OUR AREA  *****

CITY           SKY/WX    TMP DP  RH WIND       PRES   REMARKS
WALHALLA         N/A      5   1  85 N17       30.40R WCI -14
GRAFTON AIRPOR NOT AVBL
VALLEY CITY AR CLOUDY    16  14  93 NE16G22   30.26R WCI   0
CANDO          CLOUDY     5  -2  72 NE17G24   30.34R WCI -14
CAVALIER APRT  CLOUDY     7   1  78 N15G21    30.38R FOG     WCI -11
GWINNER        CLOUDY    21  19  93 NE18      30.25R WCI   6
ROLLA          CLOUDY     1   0  92 NE18      30.30R WCI -19
 ***** THE ABOVE OBSERVATIONS ARE NON NWS ARE NOT QUALITY
       CONTROLLED AND MAY MIS-REPORT RAIN FOR SNOW...
$$

  *****  WEATHER ACROSS NORTHERN MINNESOTA  *****

CITY           SKY/WX    TMP DP  RH WIND       PRES   REMARKS
FLAG ISLAND    CLEAR      0  -6  78 NW18      30.27R WCI -22
WARROAD        CLEAR      1  -4  78 NW9       30.29R WCI -14
ROSEAU         PTCLDY     3  -2  78 N12       30.30S WCI -13
HALLOCK        PTCLDY     5  -2  72 N15       30.35R WCI -13
THF RVR FALLS  CLEAR      7  -2  66 N20       30.28S WCI -13
BAUDETTE       PTCLDY     3  -3  76 NW16      30.25R WCI -16
WASKISH        PTCLDY    10   7  85 NW10      30.24R WCI  -3
CROOKSTON      PTCLDY    10   5  79 N17       30.32R WCI  -7
STEPHEN NDAWN    N/A      5   0  78 N15         N/A  WCI -13
GREENBUSH NDAW   N/A      3  -2  78 N15         N/A  WCI -15
$$
  *****  WEATHER ACROSS CENTRAL AND WEST MINNESOTA  *****

CITY           SKY/WX    TMP DP  RH WIND       PRES   REMARKS
FOSSTON        FLURRIES  12   9  85 N17       30.25R WCI  -5
BEMIDJI        FLURRIES  17  13  86 N13       30.19R WCI   3
PARK RAPIDS    CLOUDY    20  16  84 N8        30.17R WCI  10
ELBOW LAKE     CLOUDY    20  18  91 N16       30.19R WCI   5
WADENA         CLOUDY    21  19  93 NW6       30.17R WCI  14
DETROIT LAKES  CLOUDY    19  18  93 N15       30.21R WCI   5
MOORHEAD       CLOUDY    18  16  93 N20       30.29R WCI   1
FERGUS FALLS   CLOUDY    19  16  86 N12G17    30.24R WCI   7
MORRIS MN      CLOUDY    21  19  93 N14       30.18R FOG     WCI   8
STAPLES        CLOUDY    21  19  93 N8        30.16R WCI  12
$$
  *****  WEATHER ELSEWHERE ACROSS MINNESOTA  *****

CITY           SKY/WX    TMP DP  RH WIND       PRES   REMARKS
DULUTH         CLOUDY    20  14  77 NW6       30.09R WCI  12
INTRNTL FALLS  LGT SNOW  12   7  80 NW12      30.17R WCI  -2
ELY            FLURRIES  14  10  85 NW8       30.09R WCI   3
CLOQUET        CLOUDY    21  16  79 NW6       30.11R WCI  14
WHEATON        CLOUDY    18  16  93 NW16      30.24R WCI   3
BRAINERD       CLOUDY    24  19  81 N14       30.15R WCI  12
HIBBING        CLOUDY    20  13  74 N12       30.11R WCI   8
ALEXANDRIA     CLOUDY    22  19  89 N13       30.16R WCI  10
SAINT CLOUD    CLOUDY    24  21  88 NW9       30.14R WCI  14
MINNEAPOLIS    CLOUDY    23  18  81 CALM      30.13S
$$

  *****  WEATHER ACROSS SOUTH DAKOTA  *****

CITY           SKY/WX    TMP DP  RH WIND       PRES   REMARKS
SIOUX FALLS    MOCLDY    22  21  96 NE5       30.10R WCI  16
BROOKINGS      NOT AVBL
WATERTOWN      CLOUDY    23  21  92 NE13      30.12S FOG     WCI  11
HURON          CLOUDY    26  24  92 NE10      30.13F FOG     WCI  16
SISSETON         N/A     22  19  89 NE16      30.21R WCI   8
ABERDEEN       CLOUDY    25  22  88 N14       30.19R WCI  13
MITCHELL       MOCLDY    26  24  92 N8        30.11S WCI  18
PIERRE         FOG       25  24  96 NE13      30.10F VSB 3/4 WCI  14
MOBRIDGE       CLOUDY    25  23  92 NE13      30.14S FOG     WCI  14
RAPID CITY     MOCLDY    28  22  78 N8        30.01F WCI  20
$$

  *****  SOME WEATHER IN NEARBY STATES *****

CITY           SKY/WX    TMP DP  RH WIND       PRES   REMARKS
GLASGOW MT     CLOUDY    23  20  88 E20G29    30.08S FOG     WCI   8
GREAT FALLS MT CLOUDY    27  25  93 NW17      30.04R WCI  14
CHEYENNE WY    CLOUDY    32  23  69 N6        29.92F
SCOTTSBLUFF NE CLOUDY    32  27  81 W5        29.97F
OMAHA NE       CLOUDY    34  28  79 SE8       30.19S
DES MOINES IA  CLOUDY    32  24  72 SW9       30.20S WCI  24
DAVENPORT IA   PTCLDY    26  17  68 SW12      30.23F WCI  16
CHICAGO IL     MOCLDY    25  18  74 SW8       30.24F WCI  16
EAU CLAIRE WI  CLOUDY    22  13  68 CALM      30.12S
LA CROSSE WI   CLOUDY    24  15  68 S5        30.16F WCI  18
$$

  *****  SOME NATIONAL WEATHER *****

CITY           SKY/WX    TMP DP  RH WIND       PRES   REMARKS
LA GUARDIA NY  CLEAR     15   1  53 NW26G37   30.09R WCI  -4
RALEIGH NC     CLEAR     23   8  52 CALM      30.33R
ATLANTA GA     PTCLDY    30  19  63 N6        30.31S WCI  24
NEW ORLEANS LA PTCLDY    46  32  58 E8        30.28F
OKLAHOMA CITY  CLOUDY    45  28  51 SE12      30.19F
ALBUQUERQUE NM LGT SNOW  33  32  96 N6        29.93F FOG
SALT LAKE CITY CLOUDY    39  34  82 W5        29.96S
LOS ANGELES CA MOCLDY    56  55  97 CALM      29.84F
BOISE ID       CLEAR     27  24  89 CALM      30.12F
SEATTLE WA     FOG       39  38  96 NE3       30.26S VSB 1/8
$$

*** WEATHER ACROSS MANITOBA...SASKATCHEWAN AND ONTARIO ***
                ***ONTARIO***

CITY           SKY/WX    TMP DP  RH WIND       PRES   REMARKS
GERALDTON      LGT SNOW   7   1  78 NW9       29.99R WCI  -7
THUNDER BAY    FLURRIES  12   9  85 SW7       30.09S WCI   2
SIOUX LOOKOUT  LGT SNOW   1  -2  85 N14       30.16R WCI -17
TORONTO        MOCLDY     7   0  72 VRB2      30.31S
BIG TROUT LK   CLEAR    -26 -33  68 NW10G18   30.25R WCI -48
PICKLE LAKE    FLURRIES  -9 -17  70 NW8G18    30.14  WCI -26
DRYDEN         LGT SNOW   3   0  85 N7        30.16R WCI  -9
KENORA         FLURRIES   1  -2  85 NW12G17   30.23R WCI -15
$$
                *** MANITOBA***

CITY           SKY/WX    TMP DP  RH WIND       PRES   REMARKS
BRANDON        MOCLDY     0  -8  71 NE8       30.40R WCI -15
DAUPHIN        PTCLDY    -8 -15  71 N16G23    30.52R WCI -30
ISLAND LAKE    CLEAR    -24 -31  69 NW10      30.42R WCI -46
PILOT MOUND      N/A      1  -4  78 N12         N/A  WCI -15
THE PAS        CLEAR    -22 -29  69 NW10      30.61R WCI -44
THOMPSON       NOT AVBL
WINNIPEG       PTCLDY    -4 -13  65 N21G29    30.41R WCI -28
LYNN LAKE      CLEAR    -27 -35  68 NW7       30.52R WCI -46
CHURCHILL      BLWGSNOW -24 -31  69 NW26G35   30.31R VSB 1/2 WCI -57
GILLAM         CLEAR    -29 -36  68 W12G17    30.38R WCI -54
$$
                ***SASKATCHEWAN***

CITY           SKY/WX    TMP DP  RH WIND       PRES   REMARKS
ESTEVAN        LGT SNOW  10   7  85 E16       30.29R DRFTSNOWWCI  -7
KINDERSLEY       N/A      5   1  85 NE20G26   30.34R WCI -15
LLOYDMINSTER   CLEAR     -8 -13  77 NE13      30.47S WCI -28
PRINCE ALBERT  PTCLDY   -15 -20  76 NE5       30.58R WCI -27
REGINA         LGT SNOW   7   3  85 NE17      30.34S WCI -12
YORKTON        CLEAR     -2  -8  78 N10       30.42S WCI -19
N. BATTLEFORD  CLEAR     -4  -9  77 N10       30.51R WCI -21
LA RONGE       CLEAR    -29 -35  75 CALM      30.65R
SASKATOON      PTCLDY    -4  -9  77 NE15G22   30.50R WCI -25
SWIFT CURRENT  LGT SNOW   7   5  92 E23       30.21R VSB 1   WCI -14
$$
NOTE: THESE ARE AUTOMATED STATIONS WITH LIMITED QUALITY CONTROL
      "FAIR" INDICATES FEW OR NO CLOUDS BELOW 12,000 FEET WITH NO
      SIGNIFICANT WEATHER AND/OR OBSTRUCTIONS TO VISIBILITY.
      SKY/WX - SKY CONDITION AND SIGNIFICANT WEATHER.
      TMP - AIR TEMPERATURE.    DP   - DEWPOINT TEMPERATURE.
      RH  - RELATIVE HUMIDITY.  PRES - PRESSURE.
      HX  - HEAT INDEX.         WCI  - WIND CHILL INDEX.
$


USA.gov is the U.S. government's official web portal to all federal, state and local government web resources and services.